Theta_e
304 303 303 304 304 303 302 302 301 301 301 300 299 297 296 294 293 292 290 289 288 289 288 288 288 287 287 287 287 286 287 286 283 283 284 284 283 283 282 283 285 282 282 283 283 283 283 283 284 283 283 282 282 282 282 283 282 283 284 286 288 288 289 287 285 284 285 287 286 286 287 287 286 287 286 287 287 288 289 289 289 289 289 290 290
303 303 303 303 302 301 300 299 299 299 298 298 296 294 292 291 289 289 290 287 288 288 288 287 286 287 287 287 285 285 285 284 283 282 283 283 283 283 282 281 284 282 282 283 283 282 282 282 283 283 282 282 282 282 282 282 282 282 282 281 282 282 283 285 284 283 282 284 284 286 285 286 284 286 285 285 286 287 287 287 288 288 288 289 289
303 302 302 300 299 298 297 296 296 295 295 293 292 291 289 288 288 289 288 287 286 287 286 286 286 286 286 285 285 284 284 283 282 283 283 284 284 283 282 283 283 283 282 282 282 282 282 281 281 281 282 282 282 281 281 281 281 281 281 281 281 282 282 282 283 282 281 282 284 283 284 284 284 284 285 286 286 286 286 286 286 287 288 288 288
300 300 298 297 296 295 295 294 294 293 292 291 290 288 288 288 287 288 287 286 286 284 285 286 285 285 285 284 284 284 284 283 283 283 284 284 284 284 283 282 282 282 281 281 282 282 282 282 282 282 282 282 281 281 281 281 281 281 280 281 281 281 281 281 282 282 282 281 282 282 283 283 284 285 285 286 285 285 285 286 286 286 286 287 287
298 297 296 294 294 294 292 292 292 291 290 288 288 287 287 287 287 287 286 286 285 285 284 284 284 285 285 284 284 283 283 283 284 283 283 282 283 283 282 282 281 281 281 282 283 282 282 282 282 282 281 281 280 280 281 280 281 281 281 281 281 281 281 281 281 282 281 280 281 283 283 283 284 284 284 284 284 284 285 284 284 285 285 286 287
296 295 294 294 292 292 291 291 290 289 288 288 287 287 286 286 286 285 286 285 284 284 284 283 284 283 283 283 283 283 282 282 282 282 282 282 282 282 281 281 282 281 281 282 282 281 281 281 281 281 280 280 280 280 280 280 280 280 280 280 280 281 281 281 281 281 281 281 281 280 282 282 281 282 284 283 282 282 282 283 284 284 284 285 286
294 294 293 293 291 291 290 290 289 288 287 287 286 285 285 285 285 284 284 284 284 283 283 283 282 283 283 283 283 283 282 282 282 282 282 282 282 282 282 282 282 282 281 282 281 281 280 280 279 280 280 280 280 279 279 280 280 279 280 280 280 280 280 280 280 280 280 280 280 281 281 282 282 281 282 283 282 282 281 281 281 283 284 284 283
292 292 292 291 291 289 288 287 287 287 286 285 285 284 284 284 283 283 283 283 283 283 283 282 282 282 282 282 282 282 282 282 282 281 282 282 282 282 282 281 281 281 281 281 281 280 280 279 280 280 280 280 280 280 280 280 280 279 280 280 280 279 279 279 280 281 281 281 281 281 281 281 281 281 282 281 280 280 282 282 280 281 282 283 283
291 291 290 290 288 286 285 285 285 285 284 284 284 283 283 283 282 282 282 282 283 282 282 282 282 282 281 281 281 281 282 283 283 283 283 283 282 282 282 281 281 280 280 279 279 279 279 279 279 279 281 282 284 284 284 284 281 279 279 279 279 280 280 281 281 281 281 281 280 280 280 279 279 279 279 279 278 279 281 282 281 281 282 281 282
290 289 288 287 285 285 285 285 284 284 284 283 283 283 282 282 282 282 282 282 281 281 281 281 281 281 281 281 281 282 282 284 286 289 288 283 282 282 282 281 280 279 278 278 279 279 279 279 279 281 282 282 282 283 283 283 283 282 281 281 281 281 281 280 280 280 279 278 278 279 278 278 279 279 279 280 281 281 281 281 279 280 281 281 282
287 287 286 285 285 284 284 284 283 283 283 283 282 282 282 282 282 281 281 281 281 280 281 280 280 280 280 280 280 281 282 285 288 288 289 288 283 281 280 280 279 278 278 278 278 278 278 278 278 279 279 280 279 282 282 282 282 283 283 283 283 281 280 279 279 280 279 278 279 279 278 278 279 280 280 280 281 281 281 281 280 280 279 279 277
286 286 285 284 284 284 284 283 283 282 282 282 282 282 282 281 281 281 280 280 280 280 280 280 280 280 280 280 279 280 282 287 288 288 288 287 284 280 279 279 279 278 278 278 278 277 277 277 278 279 278 279 279 278 279 281 282 282 283 283 283 284 284 282 280 279 279 278 278 278 279 278 279 280 280 280 280 281 281 280 280 280 279 279 279
285 285 284 284 283 283 283 283 282 282 282 282 281 281 281 281 280 280 280 279 279 280 279 279 279 279 279 279 279 279 281 286 287 287 287 286 284 281 278 278 278 277 277 277 277 277 277 277 277 278 278 279 278 277 277 278 281 282 283 283 283 283 283 284 284 282 281 279 279 279 279 279 279 280 281 281 282 280 280 280 280 280 280 279 280
284 284 283 283 283 283 282 282 282 282 281 281 281 281 280 280 279 279 279 279 279 279 279 279 279 278 278 278 278 279 280 285 286 286 286 285 284 281 278 279 279 278 277 276 276 276 276 276 276 276 276 276 276 277 278 279 281 281 281 281 281 282 283 283 283 283 282 281 280 279 281 281 280 281 282 283 281 279 279 279 280 280 280 280 281
284 283 283 283 282 282 282 282 281 281 281 281 280 280 280 279 279 279 279 279 279 278 278 278 278 277 277 278 278 279 281 284 285 285 285 284 283 281 279 279 278 278 277 277 277 276 276 276 276 276 276 276 277 279 279 280 281 281 280 280 280 281 281 281 281 281 281 281 281 281 281 282 282 282 282 282 281 281 281 281 281 281 281 283 283
283 283 282 282 282 282 282 281 281 281 280 280 280 279 279 279 278 278 277 277 277 278 277 278 277 277 278 278 278 277 279 283 284 284 284 284 282 279 278 278 277 277 277 277 277 277 276 275 275 275 275 276 278 281 282 282 281 280 279 279 279 279 280 281 282 282 281 281 281 281 282 282 283 282 282 282 282 282 282 282 282 281 280 279 279
283 283 282 282 282 282 282 281 281 280 280 280 279 279 278 277 277 277 277 277 277 276 276 277 277 277 277 277 277 277 277 281 283 283 283 283 280 277 277 276 276 276 277 278 278 277 276 275 275 275 275 276 279 282 284 283 280 279 278 278 278 278 277 278 280 282 283 283 284 284 284 284 284 284 284 284 282 282 281 279 278 280 278 277 278
283 283 282 282 282 282 281 281 281 280 280 279 279 279 278 278 277 277 278 277 277 277 277 277 277 277 276 276 276 275 275 278 282 282 283 283 280 277 276 275 275 276 277 278 277 277 277 278 277 275 276 277 281 283 283 282 279 278 278 277 276 275 274 276 278 280 282 282 282 282 282 283 283 283 283 283 283 283 279 277 278 279 277 278 276
283 282 282 282 282 281 281 281 280 280 279 279 279 278 278 277 277 277 277 277 277 277 277 276 276 276 276 276 278 275 274 276 280 281 282 282 279 276 276 273 275 276 277 276 277 277 276 277 278 278 278 280 282 283 283 281 279 278 277 276 274 273 275 277 278 278 278 277 277 278 279 279 278 277 278 282 282 282 280 280 280 279 277 277 278
283 283 282 282 281 281 281 280 280 279 279 278 278 278 277 276 276 276 276 276 276 275 276 275 275 275 276 276 276 275 274 275 278 280 281 281 281 277 276 275 275 276 276 276 275 275 276 275 276 278 280 282 282 282 282 282 279 278 276 274 273 273 277 278 279 278 277 277 277 277 276 276 277 277 278 279 279 280 281 281 281 280 278 278 278
283 282 281 281 280 280 280 279 279 279 278 278 277 276 276 276 275 275 275 275 275 274 274 275 275 275 276 276 274 273 275 274 276 279 280 280 281 279 276 277 277 277 276 275 275 275 275 275 276 278 280 282 282 281 281 281 280 277 275 274 276 279 280 278 277 278 276 275 274 274 274 275 276 277 277 278 279 279 280 281 281 281 280 279 278
282 281 280 280 279 279 278 278 278 277 277 277 276 275 275 275 275 275 274 274 274 274 274 275 275 275 275 274 273 274 275 275 275 277 278 279 280 280 278 277 278 277 275 275 275 275 275 275 276 278 281 281 281 280 280 280 279 275 276 280 281 280 277 276 276 274 273 273 273 274 274 275 275 276 277 278 278 279 280 280 281 281 282 282 280
280 280 279 278 277 277 277 276 276 276 276 276 275 274 274 274 274 274 274 274 274 273 274 274 274 273 273 274 274 274 274 273 276 275 277 278 279 279 280 279 279 278 276 275 275 274 275 276 277 279 280 280 279 279 279 279 277 276 280 279 278 277 275 273 273 272 272 272 273 273 274 274 274 275 275 276 278 279 279 280 281 282 282 283 283
279 278 277 276 275 275 275 274 275 275 274 274 274 274 273 273 273 273 274 274 273 273 273 273 273 272 272 272 273 273 273 273 273 275 276 277 278 279 279 279 279 277 277 275 275 276 276 277 278 279 278 278 277 277 277 276 276 278 277 277 276 274 271 271 271 271 271 272 272 272 273 274 274 274 275 277 277 278 279 280 280 281 281 282 283
277 276 275 274 273 273 273 273 273 273 273 274 273 273 273 273 273 273 274 274 273 272 272 272 272 271 271 271 271 272 272 272 271 273 275 276 277 278 278 278 278 278 276 275 276 276 278 279 278 277 276 276 276 275 274 275 276 275 275 274 272 269 269 269 269 270 270 270 271 271 272 273 274 275 276 277 278 279 279 279 280 280 282 282 282
275 274 273 273 273 272 272 272 272 273 273 273 274 274 274 274 273 273 273 273 272 272 271 271 271 271 271 271 271 271 271 271 271 272 274 275 276 277 277 277 277 277 277 276 277 278 277 276 275 275 273 273 272 270 270 271 273 273 272 271 268 268 268 268 269 269 269 270 270 271 272 273 274 275 276 277 277 276 277 277 278 279 280 280 278
274 273 272 272 272 272 272 272 272 272 272 272 273 273 274 274 273 272 272 272 271 271 271 270 270 270 270 270 270 270 269 268 270 271 273 274 275 275 276 276 276 276 275 275 275 273 272 271 271 273 272 273 272 272 271 270 268 267 267 267 266 266 267 268 269 269 269 269 270 271 272 273 274 275 275 275 275 276 277 277 278 278 278 278 276
273 272 271 271 271 272 272 273 272 272 272 272 272 272 273 274 273 272 271 272 271 270 270 270 270 270 269 269 268 267 266 266 268 271 274 274 275 275 275 275 274 273 272 274 272 269 267 270 269 267 267 266 266 264 265 265 265 266 265 265 265 266 268 269 269 269 269 270 270 271 271 272 273 273 273 274 274 275 277 277 277 277 276 275 273
272 271 271 271 271 272 272 272 272 271 271 271 272 273 273 273 273 272 273 273 273 273 271 271 270 270 270 269 268 267 267 268 270 275 275 276 275 274 274 274 273 272 274 274 268 265 264 264 264 265 264 264 264 264 264 263 263 263 263 264 264 265 265 266 265 266 267 268 268 269 270 272 271 272 273 273 274 275 276 276 276 275 274 273 271
271 271 271 271 271 271 271 271 271 270 271 270 270 270 273 274 273 272 271 274 275 275 274 270 270 269 268 268 268 268 268 270 275 276 276 276 276 276 276 275 275 273 274 272 269 260 261 261 262 262 263 262 262 262 262 262 262 262 262 265 264 264 265 265 265 266 267 267 268 269 269 270 270 271 272 272 273 275 276 275 274 274 271 270 269
272 271 271 271 271 271 271 270 270 270 270 270 270 271 271 273 275 275 275 276 276 277 276 276 275 273 270 266 269 275 274 276 276 275 275 275 275 275 274 274 274 274 273 265 261 260 260 260 261 261 261 261 261 261 261 261 261 261 262 262 263 264 264 264 264 265 266 267 267 268 268 269 270 271 271 272 273 274 274 274 273 272 270 269 267
272 271 271 271 271 271 271 271 271 270 270 270 271 271 271 271 272 275 276 277 278 278 277 277 276 275 275 272 269 268 274 275 275 275 274 274 274 274 273 273 273 272 270 269 259 259 259 259 258 259 260 259 260 261 261 260 261 261 261 262 262 263 263 263 264 265 265 266 266 267 267 268 269 270 271 272 273 273 273 272 271 270 268 267 266
272 272 271 271 271 271 271 271 270 269 269 269 271 271 271 270 269 270 273 277 278 277 276 276 276 276 276 275 274 273 273 274 275 274 274 273 273 272 272 273 272 271 268 260 257 258 258 258 258 258 258 258 259 259 260 260 260 261 261 262 261 262 263 263 265 264 265 265 266 266 267 268 269 270 271 272 272 271 271 270 269 268 266 264 264
272 272 271 271 271 271 271 270 270 269 269 270 271 271 272 271 271 270 269 270 271 272 274 275 275 275 275 275 274 274 274 274 274 273 273 272 272 271 270 267 270 270 266 257 257 257 257 257 258 257 257 258 258 259 260 260 260 261 261 261 261 262 262 263 263 263 264 265 265 266 267 268 269 269 270 271 272 271 270 269 268 266 265 264 264
269 270 270 270 271 271 270 270 270 269 269 270 270 270 271 270 270 269 269 268 267 266 267 268 271 274 272 272 273 273 273 274 273 272 272 271 270 270 267 258 257 257 258 257 258 256 257 257 256 257 256 256 257 259 259 259 260 260 260 260 261 261 262 262 263 264 264 264 264 265 267 267 268 269 270 270 270 269 269 268 266 265 264 264 264
269 270 269 270 270 271 270 270 270 269 269 269 270 269 269 269 268 269 268 268 267 266 265 264 263 270 272 271 272 272 273 273 272 271 271 270 269 268 256 255 256 256 257 256 256 257 258 256 257 256 256 256 257 257 258 259 259 259 260 260 261 261 261 262 263 263 264 264 264 266 266 267 268 269 270 271 270 268 267 267 266 266 265 264 264
268 268 269 269 269 269 269 269 269 269 269 268 268 268 267 267 267 267 267 266 265 266 265 263 262 263 267 264 267 270 272 271 271 270 270 268 267 261 254 254 253 254 256 255 256 256 255 255 255 255 255 256 256 257 258 258 259 259 260 261 261 261 261 262 263 264 263 263 264 265 265 266 267 268 270 269 268 268 267 266 265 266 265 265 264
267 267 267 267 267 268 268 268 268 268 268 267 267 267 266 266 266 266 265 265 265 264 263 263 264 263 262 262 266 263 265 269 268 267 266 265 260 255 254 255 255 254 255 254 255 254 254 254 253 254 255 255 256 257 258 258 259 259 259 260 262 262 264 263 264 263 264 264 264 264 265 266 267 268 270 269 267 266 266 266 264 263 262 262 262
265 267 267 268 268 267 267 267 267 267 266 266 266 266 265 265 265 264 264 264 264 264 263 263 263 262 262 262 261 263 263 259 257 256 255 254 254 253 252 253 254 254 255 254 255 255 253 253 255 255 255 255 256 256 257 258 258 259 260 261 262 262 262 262 262 263 264 264 264 264 264 265 266 268 269 268 267 267 265 264 263 262 260 260 260
264 265 267 268 267 267 266 266 266 266 265 265 265 265 265 265 265 264 264 264 264 263 262 262 262 262 262 261 261 261 260 260 258 257 255 255 255 254 252 253 254 254 254 253 253 253 253 253 253 254 254 254 256 256 257 257 258 259 260 261 261 261 262 262 262 263 263 263 263 263 264 264 266 268 269 268 267 266 264 263 262 261 261 260 260
265 265 265 267 267 266 265 265 266 265 265 265 265 265 265 265 265 264 263 263 263 262 262 262 262 261 261 262 265 265 261 260 259 258 257 256 255 254 253 253 254 253 254 255 254 253 253 253 253 254 254 254 256 256 257 257 258 259 260 261 261 262 262 262 262 262 263 263 262 263 263 264 265 267 267 267 267 266 264 263 261 259 260 260 260
264 264 265 266 266 265 265 265 266 265 266 265 265 265 265 265 264 263 263 263 262 262 262 261 261 259 262 265 266 268 262 259 258 257 256 256 255 255 255 254 253 253 253 252 251 253 254 254 254 254 254 254 255 256 257 257 258 258 259 260 261 261 261 262 262 262 262 262 262 262 263 264 265 266 267 268 265 264 263 262 260 258 258 259 259
265 266 266 266 266 266 265 265 266 265 265 265 265 264 264 264 263 263 263 263 262 262 261 261 261 260 261 265 265 267 261 258 259 258 257 256 255 255 254 255 254 253 252 252 251 251 253 253 254 253 253 254 254 255 256 257 258 258 259 260 261 261 261 261 262 262 262 262 262 262 263 263 264 265 267 266 264 263 263 263 261 258 257 257 258
264 265 266 266 266 266 266 266 265 265 265 265 264 264 264 264 263 263 263 262 262 262 262 262 261 260 260 262 264 263 260 258 258 258 257 257 256 256 255 253 252 251 251 251 251 251 251 252 253 253 253 253 254 253 255 256 257 257 258 259 260 261 261 261 261 262 261 261 261 262 262 263 264 265 266 266 264 263 262 262 261 258 257 256 257
264 264 264 264 265 265 265 265 265 265 264 264 263 264 263 263 263 263 263 262 262 262 262 261 261 260 260 259 260 260 260 259 258 257 257 257 256 256 255 252 250 251 250 251 251 250 249 251 252 251 253 253 253 253 254 254 255 257 258 259 260 260 261 261 262 262 262 261 261 261 261 262 263 265 265 265 263 262 261 261 260 261 257 257 257
263 264 265 265 265 265 264 265 264 265 264 264 263 263 263 263 263 263 262 262 262 261 261 260 260 260 260 260 259 259 258 257 257 257 256 256 256 255 254 252 251 250 250 250 250 249 251 251 250 251 252 253 253 253 253 254 255 257 258 259 260 261 262 263 263 263 262 261 260 260 261 262 263 264 265 265 263 262 261 261 261 260 258 258 259
262 263 264 264 264 265 264 264 264 264 264 264 264 263 263 263 263 262 262 262 262 261 260 260 259 259 259 259 258 258 258 257 257 256 256 256 255 254 253 252 252 251 249 250 248 250 251 251 250 251 251 252 252 252 253 253 254 255 257 259 260 262 262 263 263 262 261 261 261 260 260 261 262 264 264 264 264 262 262 261 261 260 260 260 259
262 262 263 263 263 263 263 263 263 263 264 264 264 264 263 263 263 262 262 261 261 261 260 260 259 259 259 258 258 258 257 257 257 257 256 256 255 254 253 251 252 252 249 250 249 250 250 249 250 249 250 251 252 252 252 252 253 254 255 257 259 261 262 264 263 261 260 259 259 259 259 260 261 263 264 264 263 263 262 261 260 260 260 260 260
261 261 262 262 262 263 263 263 263 263 263 263 263 263 263 263 262 261 261 261 261 261 260 259 259 259 258 258 258 257 257 257 256 256 256 256 255 254 253 252 252 251 250 251 251 251 250 249 250 250 250 250 250 251 251 252 253 253 254 255 258 260 262 263 263 260 260 260 258 257 257 258 260 261 262 263 263 262 262 261 260 260 260 260 259
260 261 261 262 262 262 263 263 263 263 263 263 263 263 263 262 261 260 260 260 260 260 260 259 259 258 258 257 257 257 256 256 256 256 256 255 254 253 253 252 251 250 251 251 251 251 248 246 247 248 249 249 250 250 251 251 252 253 253 255 258 260 262 263 263 262 260 258 258 256 256 256 257 258 259 261 262 262 261 261 261 261 260 259 258
260 260 261 261 262 262 262 263 263 263 263 263 263 262 262 261 260 260 260 259 259 259 259 259 258 258 258 258 257 257 256 256 256 256 255 254 254 253 252 252 252 251 251 251 251 250 248 248 247 249 249 251 251 251 250 251 250 252 255 257 259 261 262 263 263 262 262 260 255 255 255 255 255 256 257 259 260 260 260 260 260 260 259 259 259
Wind_Speed
7 7 7 7 10 10 9 8 9 8 9 8 10 9 8 7 6 7 6 6 7 7 7 6 6 6 6 6 6 6 6 6 4 5 5 5 3 4 3 4 4 3 3 4 4 4 5 4 4 4 3 4 4 4 4 4 3 3 3 3 4 4 5 8 11 16 19 11 7 12 13 12 16 10 13 14 15 13 13 12 13 14 14 12 14
7 7 6 8 9 9 8 7 8 8 9 8 9 8 7 7 7 7 8 5 6 7 7 6 6 7 7 7 6 6 5 6 4 4 5 4 4 3 5 5 4 3 3 4 4 4 3 4 4 4 3 3 4 4 4 4 4 4 4 3 4 4 4 4 8 11 19 20 16 11 12 5 13 11 12 14 16 17 19 15 11 11 13 13 14
5 7 7 8 8 8 8 8 8 9 10 8 9 8 7 7 6 9 8 6 4 6 7 7 7 7 7 6 6 6 5 5 4 5 4 4 4 4 3 4 4 4 4 4 4 3 4 4 4 4 4 5 4 4 4 4 4 4 5 4 4 5 4 5 7 12 16 19 17 15 13 12 11 14 13 12 13 13 17 17 14 13 13 14 13
6 7 7 8 8 8 8 8 9 9 10 8 9 7 7 7 6 8 8 6 8 5 6 7 7 7 8 7 6 6 5 5 5 4 4 4 4 4 4 4 3 3 4 4 4 4 4 5 6 5 5 6 6 6 5 4 5 5 4 5 5 6 5 4 6 8 12 16 20 16 14 15 16 12 12 13 13 12 13 16 16 15 15 14 14
7 6 8 9 7 8 8 8 9 9 9 8 9 8 8 8 7 8 8 7 6 7 6 5 7 7 8 7 6 6 5 5 5 4 4 4 4 4 4 3 3 4 4 4 5 4 5 5 5 5 5 6 6 6 6 7 6 6 7 6 6 6 6 6 8 8 11 15 18 16 15 14 12 13 10 13 16 15 13 15 14 15 14 14 13
6 8 7 10 8 8 8 7 8 9 9 8 9 8 8 7 7 6 7 9 7 6 7 5 7 7 6 6 6 6 5 5 5 4 4 4 4 4 3 4 4 4 4 4 4 4 4 4 4 4 5 5 6 6 6 7 7 7 7 7 7 7 7 7 7 9 10 13 13 17 16 16 15 13 11 10 13 16 16 16 15 11 13 14 10
6 8 7 8 8 7 8 7 8 8 8 8 7 7 7 7 7 8 5 7 8 8 6 8 5 7 6 7 6 6 5 4 4 4 4 4 4 4 4 4 4 5 4 4 3 3 3 3 4 4 4 5 5 6 7 6 6 6 7 7 6 6 8 8 8 9 10 12 12 11 13 12 10 16 10 10 12 12 13 15 15 15 12 16 18
7 7 8 7 8 7 6 6 7 7 7 7 7 7 7 6 6 6 6 7 7 7 8 8 6 6 7 7 6 5 5 4 4 4 4 4 5 5 5 5 5 5 4 4 3 3 3 4 4 4 4 5 5 5 5 6 5 6 6 6 7 7 8 8 8 9 10 10 10 11 10 12 12 9 13 12 11 10 8 11 16 15 16 14 16
8 8 8 8 7 7 6 6 6 7 7 8 8 7 7 6 6 6 6 7 6 6 6 7 9 8 7 6 6 4 5 5 3 4 5 5 5 5 5 5 5 4 3 3 3 3 4 4 4 4 5 8 10 9 8 9 7 8 7 5 7 8 9 8 8 9 8 10 11 10 11 13 13 12 13 13 12 14 13 12 13 14 13 16 14
8 7 8 7 7 7 7 6 7 7 8 8 8 7 7 7 7 7 7 7 7 6 7 7 7 8 8 6 5 5 5 3 7 11 8 5 4 5 5 5 4 3 3 4 4 4 4 4 4 8 9 8 8 9 13 13 13 10 8 8 9 9 9 9 9 7 9 11 11 11 14 14 13 10 12 12 12 14 15 14 16 14 15 12 14
7 8 8 7 8 8 8 8 8 8 7 7 7 8 8 7 8 8 7 7 7 6 7 8 7 6 7 6 6 5 4 5 11 11 12 11 6 6 5 4 3 3 3 3 4 5 5 4 4 5 6 6 5 10 14 15 14 15 15 15 13 11 11 11 10 9 9 10 11 11 12 16 16 12 12 13 12 14 14 14 12 14 13 16 17
8 7 8 8 8 9 9 9 9 8 8 8 8 7 7 7 8 8 8 8 6 6 8 7 6 5 6 6 6 5 5 9 12 12 11 13 10 6 4 4 4 3 3 3 3 4 5 5 4 4 4 6 7 6 8 13 14 15 16 15 15 16 16 13 12 12 11 12 13 11 10 12 14 13 12 11 13 12 13 14 14 13 15 14 14
9 9 8 9 9 8 8 9 9 9 8 8 7 7 8 8 8 8 8 6 7 8 7 7 6 4 5 7 7 6 5 10 12 12 11 12 13 8 5 3 4 4 3 3 3 3 4 5 5 4 5 8 7 6 7 8 11 14 16 16 16 16 17 19 19 14 12 12 14 15 13 11 13 12 11 14 12 16 14 13 13 13 13 14 14
9 9 8 8 8 8 8 9 10 9 8 8 8 8 8 8 6 6 6 6 7 7 6 7 6 5 5 7 7 6 6 9 11 11 11 11 11 8 3 4 3 3 3 3 3 3 4 5 6 6 5 5 6 7 8 9 10 10 9 9 9 12 15 17 19 20 17 12 12 14 13 11 13 14 14 12 14 14 15 15 15 16 13 17 20
8 9 10 9 8 9 9 9 9 9 8 8 7 7 8 7 7 6 6 6 7 7 7 7 5 5 5 5 7 7 6 10 11 11 10 11 11 7 4 3 3 2 2 2 3 3 3 4 4 6 6 6 7 11 11 11 10 10 10 10 9 9 8 8 9 9 9 8 11 12 14 13 13 14 14 13 14 14 13 15 16 15 18 18 16
9 9 10 10 10 10 10 10 10 9 9 8 8 8 7 8 8 6 6 6 5 6 4 5 6 6 5 5 7 7 6 11 10 10 10 10 10 4 4 4 3 3 3 3 3 3 3 3 4 5 6 6 11 17 17 14 11 12 12 12 9 7 6 7 14 16 14 13 12 12 13 16 22 20 19 18 15 14 14 15 13 13 12 13 14
10 10 11 11 11 11 11 12 11 11 9 9 9 8 9 7 6 5 8 6 6 5 5 5 4 6 6 6 7 6 5 8 10 10 10 10 6 4 4 4 3 4 5 5 3 3 3 3 3 4 5 7 12 19 21 20 10 11 13 14 13 11 10 8 12 18 20 22 25 27 28 28 27 28 28 30 23 19 14 12 13 11 15 13 13
11 12 12 12 11 11 11 12 12 11 10 11 10 8 6 5 6 5 8 8 7 6 6 6 5 5 6 6 5 6 4 6 9 9 9 11 8 5 4 4 3 3 4 4 4 3 4 7 6 4 6 7 14 19 21 16 10 11 12 14 17 15 13 11 10 13 20 21 23 23 23 23 23 25 27 26 25 19 12 14 15 14 14 13 15
14 14 13 11 10 10 10 10 11 12 11 10 9 10 9 8 6 5 5 6 7 6 5 7 6 5 6 6 8 6 4 5 8 9 10 10 7 4 4 3 3 4 5 5 5 4 4 5 9 10 9 11 18 18 19 15 10 10 11 12 14 14 13 13 14 16 17 17 16 14 13 15 14 13 13 23 24 19 12 12 12 11 14 14 13
12 10 9 10 9 9 9 10 10 11 11 9 8 8 7 8 7 7 6 6 7 6 6 6 8 6 5 5 5 4 4 3 4 9 9 9 9 4 3 4 4 4 5 5 6 4 4 4 6 11 14 16 18 18 17 18 12 9 9 9 11 14 13 14 15 16 17 16 16 15 16 14 14 11 10 9 11 11 11 11 11 12 14 14 14
11 11 11 10 10 10 8 9 11 9 9 10 9 8 7 8 8 8 8 6 7 7 7 6 7 6 5 4 4 3 3 3 3 9 8 8 8 7 3 3 2 3 3 4 4 6 6 5 5 10 15 18 17 17 16 16 15 9 7 7 10 16 20 14 16 22 15 15 15 15 12 12 11 11 11 10 10 11 11 12 12 12 14 16 14
10 11 12 11 10 9 9 7 7 9 9 9 10 8 6 6 7 8 7 8 9 8 6 6 6 5 4 3 3 3 3 5 3 6 7 7 7 8 3 1 3 2 3 3 5 4 5 6 6 10 18 18 17 17 18 16 16 7 8 17 21 22 16 13 12 12 12 12 11 12 12 12 12 12 12 12 12 13 13 14 13 14 13 15 16
9 9 9 9 8 8 8 9 9 8 9 8 11 10 8 8 7 7 9 8 9 9 6 5 5 5 4 3 2 2 2 2 5 3 6 6 6 6 6 4 6 2 2 3 4 5 5 6 7 14 17 17 16 17 16 18 11 9 17 17 19 21 16 9 12 10 10 11 12 11 13 11 12 11 14 14 13 11 14 12 13 13 14 14 14
9 9 9 9 9 8 8 8 8 8 9 9 9 11 10 8 7 7 7 8 8 8 5 4 4 4 4 3 2 1 1 1 3 4 4 5 4 5 5 6 7 3 2 3 4 6 6 6 8 16 15 15 15 15 15 13 10 16 17 19 19 17 9 10 7 11 11 12 11 13 12 12 11 13 12 13 16 17 14 15 14 15 14 13 12
10 9 9 8 8 8 7 8 8 8 8 10 11 10 10 9 9 5 6 7 8 10 6 4 7 6 4 3 2 1 1 1 1 3 2 2 4 4 5 6 7 7 4 3 5 5 9 14 14 13 13 13 14 13 9 11 16 17 18 19 16 7 9 9 10 9 11 10 11 11 12 12 11 12 14 14 14 14 14 12 12 13 13 12 11
11 10 9 9 9 10 10 8 7 7 8 6 7 9 12 10 9 8 7 8 9 10 7 6 6 4 4 3 2 1 1 0 1 2 3 2 2 4 5 5 6 7 7 5 9 12 12 12 12 11 10 10 7 4 4 8 15 16 17 15 7 8 8 9 10 9 10 11 12 12 12 11 11 12 14 12 13 12 13 14 14 12 12 12 11
10 10 10 9 8 9 11 10 8 7 6 6 5 6 6 7 9 10 10 11 9 8 6 9 7 5 6 5 3 2 1 0 1 2 3 2 1 1 2 2 5 5 4 4 5 5 7 7 6 9 8 11 11 10 8 10 8 8 6 6 6 7 8 8 8 10 11 12 12 12 11 13 12 12 10 13 13 14 9 13 13 12 12 10 10
12 11 10 9 9 9 9 10 11 9 7 7 8 6 5 6 12 14 14 13 11 10 10 8 9 8 8 6 5 3 2 2 2 2 3 2 2 2 1 2 1 1 2 3 3 4 3 6 6 4 4 3 4 2 3 4 6 7 7 7 7 7 9 11 11 8 8 8 10 10 11 10 11 10 12 11 12 10 13 10 12 12 11 10 9
10 10 10 9 9 8 7 9 8 8 8 6 4 4 7 9 8 5 1 1 4 11 11 8 6 6 7 7 7 5 3 3 3 3 3 2 2 1 1 1 1 1 4 6 4 3 3 4 5 6 5 6 6 6 6 6 5 5 6 8 7 7 7 8 9 9 9 9 9 10 11 9 11 12 11 12 12 12 9 13 11 10 9 8 8
9 9 8 8 8 8 8 8 7 7 8 8 8 5 3 4 2 4 4 5 6 6 7 5 7 7 7 5 5 5 6 4 4 2 2 1 1 2 2 3 3 2 5 7 4 2 4 4 5 5 6 6 7 8 9 9 9 9 7 8 8 7 7 7 7 9 10 9 10 11 11 12 11 11 12 13 11 10 13 14 11 10 9 9 9
9 9 9 9 9 9 8 9 8 8 7 9 11 9 7 4 6 6 5 6 9 11 10 13 14 9 7 6 5 7 5 5 4 2 2 1 1 2 3 3 4 5 6 5 3 4 4 4 4 4 4 5 5 7 7 8 9 9 10 8 7 8 9 8 8 9 10 10 11 11 12 11 12 11 12 13 13 11 11 10 9 9 8 8 7
12 11 10 9 10 10 9 10 10 10 10 11 10 9 9 9 6 5 7 9 11 12 12 13 13 12 11 8 4 1 4 5 3 3 2 1 2 3 4 4 5 6 7 5 3 2 1 2 3 3 3 4 5 6 6 6 7 8 9 10 10 9 9 10 11 10 9 10 11 11 10 11 10 11 12 13 14 12 11 11 9 9 9 7 6
10 10 10 10 10 10 10 9 10 13 16 14 9 8 9 10 10 8 5 9 12 11 11 11 11 11 11 11 9 7 6 5 5 4 3 2 3 3 4 6 5 5 6 3 3 1 1 1 1 3 3 4 5 5 5 5 6 7 7 8 10 10 9 10 11 8 9 9 10 10 10 12 12 12 13 12 12 11 11 10 10 8 7 7 6
10 10 11 11 11 10 10 10 11 12 15 12 10 11 10 10 10 11 12 9 7 6 8 10 10 11 11 10 9 9 8 7 6 6 5 4 4 4 5 3 5 5 5 1 1 0 1 1 1 2 3 3 4 4 5 5 6 6 6 7 7 8 9 9 8 9 9 9 9 10 11 11 12 13 11 11 9 11 10 10 9 9 9 7 7
6 7 10 8 8 9 9 10 11 14 15 12 10 10 10 9 8 11 12 13 12 10 9 7 8 10 8 8 9 10 8 8 8 7 6 6 6 7 7 6 2 2 2 1 1 1 0 1 1 2 2 3 3 3 5 5 6 6 7 8 8 8 8 8 8 8 9 10 10 10 10 12 11 12 12 12 11 10 10 9 9 8 8 8 7
6 6 7 9 8 7 8 9 9 11 13 11 9 7 7 8 8 8 6 6 8 9 7 6 5 6 11 10 10 9 9 9 8 8 8 7 7 7 4 1 1 1 1 3 1 2 1 1 1 2 3 3 3 3 4 5 6 6 7 7 8 8 9 9 9 9 9 9 9 10 11 9 11 10 10 8 11 10 9 9 8 8 7 6 6
7 7 7 8 8 7 7 7 8 9 8 6 6 6 6 6 5 6 6 7 8 7 9 8 5 2 5 1 4 7 9 9 8 8 8 8 9 6 5 5 3 1 3 3 3 3 2 3 2 2 3 3 3 4 4 5 5 6 7 7 8 8 8 8 9 10 10 9 9 9 10 9 10 11 10 10 9 9 8 8 7 8 8 9 8
8 8 8 7 6 7 7 8 8 8 9 7 6 7 7 8 8 8 8 8 9 10 10 9 7 9 9 8 7 4 5 9 8 6 5 6 5 3 2 2 2 3 4 5 4 3 3 4 3 3 5 4 4 4 4 5 5 6 7 7 7 7 12 10 11 9 9 9 9 9 9 10 9 10 10 8 9 8 8 8 7 7 6 8 6
6 7 8 10 8 7 7 7 8 9 8 8 8 8 8 9 8 8 8 7 8 8 8 9 9 8 8 7 6 6 7 4 6 6 4 3 3 4 4 3 2 3 4 5 4 3 3 4 5 3 3 3 4 4 4 5 5 6 7 7 7 7 8 8 9 8 8 8 9 8 9 8 9 9 8 7 8 8 7 6 6 5 5 5 5
7 7 8 10 7 8 7 7 7 8 9 10 9 8 7 9 10 10 9 10 9 9 8 9 8 8 7 7 7 7 8 7 7 7 6 5 4 4 5 4 4 4 5 6 5 4 3 3 4 4 4 3 4 4 4 5 5 6 6 6 7 8 8 8 8 8 9 8 8 8 9 10 9 10 8 7 7 7 6 6 5 4 4 3 4
7 6 6 7 7 7 7 7 9 10 9 9 9 10 10 9 8 7 9 9 7 8 9 8 8 6 6 7 10 9 7 7 6 6 6 6 5 5 5 5 5 4 5 5 6 5 4 4 4 4 4 3 3 4 4 4 5 5 6 7 7 7 8 8 8 8 8 8 8 8 8 9 9 9 8 7 7 6 4 4 4 4 4 3 4
7 7 7 8 8 8 8 9 8 9 8 8 9 11 9 8 7 8 10 9 8 8 7 8 7 6 7 12 12 13 7 5 5 6 5 5 5 5 5 5 5 5 6 7 7 5 4 4 4 4 5 4 3 4 4 4 4 5 5 6 6 7 7 8 8 8 8 8 8 9 9 9 10 10 9 8 6 5 4 4 3 3 3 4 4
8 7 7 6 8 10 10 10 8 8 9 10 9 8 8 8 8 8 9 8 8 8 9 10 9 7 7 10 11 11 5 6 4 6 5 5 5 5 5 6 6 6 6 7 6 4 5 5 5 5 5 5 4 4 5 5 4 5 5 6 7 7 7 7 8 8 8 9 9 10 10 9 9 8 8 7 5 4 4 3 3 3 3 2 2
7 7 7 8 8 7 7 8 9 10 10 8 7 8 8 8 8 8 9 9 9 8 8 8 8 9 7 6 8 6 6 6 6 6 6 5 5 5 5 5 6 5 6 6 5 4 4 5 6 6 5 5 5 4 5 5 4 5 6 6 7 7 7 7 8 8 8 9 10 10 9 9 9 8 8 7 5 5 4 3 2 2 2 2 2
7 8 8 7 8 8 8 8 8 8 8 8 9 9 8 9 9 8 8 9 8 8 8 9 8 8 8 8 7 7 7 7 6 6 5 6 6 6 5 5 6 6 6 6 5 4 4 6 6 5 6 5 5 5 6 5 4 5 5 6 7 7 7 7 7 8 8 8 9 9 9 9 8 7 8 6 4 3 3 2 2 2 2 1 1
7 8 8 8 8 8 8 8 8 8 9 9 9 8 10 8 9 10 9 9 8 9 9 10 11 10 10 10 8 7 8 7 6 5 5 5 5 6 5 5 6 6 6 5 5 4 6 6 5 6 6 6 6 6 6 5 5 5 6 6 7 8 8 7 6 7 7 7 8 8 8 9 9 8 8 7 5 3 3 2 1 0 0 1 1
7 7 8 8 9 9 8 9 8 10 10 10 10 11 10 11 10 9 9 10 10 8 10 11 12 11 11 10 10 10 8 8 8 6 6 6 6 6 5 5 6 6 5 5 4 6 5 6 5 6 5 5 6 7 6 6 5 5 5 6 7 8 8 7 6 6 6 7 7 7 7 8 8 8 8 6 5 3 2 2 1 1 0 0 0
7 7 8 8 7 8 9 9 11 11 10 10 11 11 11 10 10 10 10 10 11 9 11 10 11 11 9 9 8 9 9 8 6 6 5 6 6 5 5 5 6 6 4 5 4 4 5 5 6 5 5 5 5 6 6 6 5 5 5 6 7 9 11 11 7 6 5 6 5 6 7 7 7 7 7 7 5 4 3 3 1 1 1 0 1
7 8 8 8 9 9 9 10 10 11 11 10 9 10 9 10 10 10 10 10 10 9 12 12 11 10 9 10 9 9 8 6 8 6 5 6 5 5 5 5 5 5 5 5 5 4 5 5 5 5 5 5 6 6 6 6 6 5 6 6 9 17 17 17 10 6 7 6 5 5 5 6 7 7 7 6 5 4 3 2 1 1 1 1 1
8 8 8 9 9 9 8 8 9 9 9 9 10 10 9 9 9 10 9 8 8 7 8 9 9 11 10 10 7 8 8 9 8 6 6 5 5 5 5 5 5 5 6 5 5 4 5 4 4 4 4 4 6 6 6 6 6 6 5 8 14 18 18 17 13 9 7 5 6 5 5 5 6 6 5 5 5 4 3 3 2 3 2 2 2
8 8 8 9 9 8 8 9 10 10 10 10 10 10 9 9 11 11 12 12 11 10 9 10 9 9 9 10 7 8 9 8 7 5 5 5 5 5 5 5 6 5 5 5 5 5 5 5 4 5 4 5 6 6 6 6 5 6 9 15 18 18 17 15 8 7 9 7 4 5 5 5 5 6 5 4 4 4 4 3 3 3 3 3 2
Wind_Direction
143 138 134 132 132 133 131 130 127 127 124 124 122 125 126 128 127 131 120 117 121 121 124 131 135 128 112 97 96 93 88 76 51 84 87 92 89 117 114 82 72 41 36 21 28 37 36 18 338 328 333 338 320 318 317 309 317 309 302 304 284 274 281 283 285 290 296 292 282 296 315 328 312 329 322 320 318 316 308 308 307 305 303 302 302
139 134 131 131 129 128 125 123 127 125 122 121 119 125 128 129 134 128 121 131 129 130 134 137 122 109 102 99 95 93 88 85 89 90 90 84 75 70 65 70 62 46 46 34 17 21 15 5 340 335 335 330 321 329 324 329 333 333 321 305 286 284 267 283 284 287 292 305 306 307 303 315 299 320 322 321 319 319 315 314 308 303 306 307 305
128 129 126 124 122 122 125 126 125 124 119 122 124 129 131 131 137 126 129 131 126 136 135 121 113 108 103 102 99 92 93 90 83 86 85 83 74 57 61 68 60 44 38 30 22 15 19 8 344 342 344 347 344 337 335 334 327 326 314 304 294 283 274 254 282 291 296 296 300 306 310 316 310 315 321 315 311 313 311 314 317 314 308 306 303
125 122 118 116 124 125 123 127 124 127 127 133 133 138 135 132 127 125 129 133 130 122 115 118 112 110 107 102 96 100 93 92 86 82 83 82 74 63 52 53 49 47 41 27 18 21 13 1 351 348 347 351 342 344 342 335 331 324 311 305 292 293 280 270 257 273 291 297 301 307 312 316 314 316 317 310 311 313 310 308 311 310 310 308 307
126 127 129 126 129 129 131 135 133 133 134 137 138 136 133 129 131 132 133 129 126 119 106 108 109 105 105 107 103 93 95 94 87 80 75 79 83 77 67 60 48 38 34 24 18 17 4 359 335 341 347 347 338 343 337 337 333 329 323 316 311 299 295 284 280 276 283 287 295 301 307 304 302 306 318 319 317 315 311 308 308 310 306 300 296
137 136 140 135 139 139 140 138 140 139 138 138 137 135 134 135 134 133 135 129 121 113 117 107 107 105 102 103 100 97 90 86 88 88 82 79 80 86 81 67 54 40 32 22 16 10 359 338 333 336 344 345 332 328 333 331 328 323 316 312 306 301 298 293 282 281 279 282 290 299 303 309 312 305 316 315 313 314 315 311 306 306 305 301 296
144 140 144 139 141 146 145 143 140 138 138 134 130 132 134 135 136 138 138 128 125 119 110 105 95 104 104 99 96 98 94 88 86 84 85 84 83 74 60 55 43 38 27 15 6 358 345 333 331 339 339 334 329 326 323 321 317 311 305 305 304 304 302 298 294 288 284 286 287 283 293 295 297 306 318 324 311 306 308 311 311 314 316 316 311
146 144 142 142 144 145 140 137 135 132 130 128 132 132 130 132 132 129 129 120 117 118 116 110 108 97 97 96 99 98 94 86 82 83 81 76 69 58 58 50 42 33 23 9 2 349 343 343 341 336 336 324 321 316 321 316 315 310 306 306 307 307 301 298 295 292 293 290 287 299 294 301 305 296 306 310 306 297 299 307 306 314 314 308 303
152 150 145 146 147 138 132 130 126 128 130 131 133 135 134 133 129 123 113 107 102 106 110 111 108 98 89 96 97 92 90 85 91 88 73 62 61 60 54 49 48 36 18 5 354 360 353 349 340 334 327 322 322 324 323 326 325 319 315 312 307 306 305 304 304 303 298 296 295 293 296 299 298 306 311 314 316 311 312 311 298 300 301 302 299
150 149 149 147 141 140 138 137 138 136 137 140 139 137 136 134 126 116 108 106 106 106 102 97 101 109 109 100 98 91 82 77 68 69 73 80 71 68 58 53 47 39 26 7 359 0 354 344 333 327 325 324 326 327 333 332 328 323 318 322 320 318 314 312 305 302 300 297 296 304 305 301 301 304 301 299 302 304 306 309 305 306 306 296 290
152 152 153 149 146 144 143 145 141 145 144 135 139 139 135 130 120 113 111 109 108 107 105 102 101 104 111 114 103 91 78 70 67 66 64 73 79 63 58 49 48 45 35 20 1 348 341 337 328 327 327 332 334 332 334 330 327 323 320 316 316 315 314 308 300 298 294 285 288 293 291 297 296 298 298 301 300 303 302 301 297 304 305 311 311
156 159 151 151 154 154 153 148 146 146 142 145 144 138 130 126 122 122 120 113 111 108 99 102 107 112 112 107 95 87 77 69 70 68 66 72 72 62 58 49 43 35 27 15 355 345 333 331 329 329 334 337 337 328 320 319 322 320 316 313 311 308 303 300 303 304 301 300 297 288 288 287 294 299 301 302 303 300 298 299 299 301 303 303 300
160 157 158 158 161 157 152 150 147 148 151 146 143 138 132 126 128 129 125 128 120 108 111 107 108 112 112 105 93 81 73 68 71 69 68 70 67 65 57 53 47 32 15 5 351 343 334 330 329 333 336 334 327 316 309 306 306 308 311 308 306 301 302 301 295 292 295 291 292 292 293 299 294 292 296 298 299 297 300 299 300 301 299 295 295
161 157 155 160 158 154 153 153 153 151 147 145 144 139 135 135 129 123 123 121 115 114 113 111 114 107 106 103 95 82 70 68 72 70 69 70 66 67 66 59 51 34 17 356 350 345 336 334 329 332 329 325 320 316 312 308 311 308 304 298 294 295 298 296 296 295 292 283 282 287 292 294 292 295 299 300 301 301 302 298 301 301 300 297 296
159 159 161 160 159 158 159 159 152 150 149 147 143 140 136 131 130 133 130 127 124 124 126 117 110 108 104 101 95 83 70 68 70 67 66 68 64 71 80 66 64 44 11 3 350 339 327 324 325 317 320 323 316 322 322 318 314 309 302 297 289 288 287 285 293 302 300 291 287 288 293 294 292 297 300 303 300 298 297 297 299 296 290 285 284
164 163 167 169 167 166 161 157 154 152 151 148 144 142 141 142 138 136 119 105 100 108 102 104 110 105 102 98 94 83 65 64 64 62 61 65 66 73 67 52 48 29 11 12 338 321 310 317 320 316 318 316 311 321 326 326 321 314 309 306 301 292 276 297 308 308 305 302 297 295 297 299 301 301 303 304 305 303 299 296 288 286 287 293 292
174 175 175 172 171 169 166 160 158 156 154 149 149 148 144 137 132 135 120 121 122 115 115 107 107 102 95 90 91 88 69 55 58 59 57 66 77 64 73 48 33 26 15 1 344 332 324 320 322 316 313 308 305 324 330 332 321 316 315 314 314 312 308 302 300 307 307 305 304 304 303 303 304 305 307 309 308 306 304 298 299 302 298 295 295
180 179 180 177 173 170 169 164 158 156 157 157 152 146 136 126 138 144 135 137 126 127 124 106 92 89 92 91 91 92 76 47 56 56 56 60 75 75 53 42 18 17 8 355 344 332 329 328 326 318 311 305 320 330 332 333 324 322 319 321 323 323 317 318 313 310 312 308 304 300 297 299 306 307 306 304 307 310 304 300 300 299 297 297 299
183 183 179 172 170 168 164 162 160 157 157 154 150 148 150 147 138 122 119 117 121 123 115 107 99 82 81 87 88 86 79 48 49 54 55 55 71 78 58 47 32 14 358 344 339 333 330 331 331 330 324 322 328 332 334 334 326 324 326 324 320 315 314 316 317 319 322 320 315 312 311 312 308 301 295 303 310 308 291 286 292 294 298 297 294
179 167 161 164 164 164 165 162 162 158 152 145 146 143 136 132 136 129 124 125 122 116 109 105 103 93 86 81 82 85 78 56 46 54 54 51 51 73 62 52 24 6 351 336 327 330 330 325 321 317 325 327 332 335 336 337 333 332 329 319 312 310 314 315 315 317 314 312 312 317 313 310 309 306 301 299 303 301 300 296 295 296 296 295 294
164 165 160 161 164 165 163 165 158 153 148 146 138 134 140 138 134 131 130 124 116 112 110 110 105 103 98 94 90 81 82 66 40 54 52 51 44 52 65 40 1 357 337 321 330 332 330 320 307 306 321 329 332 334 336 338 338 336 317 297 306 315 322 320 320 322 319 317 313 312 311 315 314 313 315 309 308 312 306 305 300 297 298 297 295
159 158 162 163 162 159 156 148 145 141 139 136 135 130 123 125 131 132 130 128 123 118 120 118 115 113 112 102 98 89 65 60 63 42 49 45 43 36 62 18 356 357 320 324 326 317 312 305 296 314 327 333 335 336 338 340 341 325 313 323 326 331 333 330 323 320 315 311 313 313 317 322 322 320 317 314 315 313 312 308 302 299 297 295 295
150 152 152 152 154 151 147 147 143 143 143 143 137 134 137 133 134 135 132 128 125 126 125 128 125 124 120 122 111 92 67 35 55 55 40 43 35 26 18 9 353 349 320 317 314 304 291 290 292 320 333 336 338 339 340 342 338 332 337 341 344 340 334 318 315 310 308 312 314 315 318 318 320 318 318 317 316 311 308 308 300 298 298 292 289
145 148 151 151 148 148 148 144 141 144 145 142 139 138 142 141 140 144 145 137 135 129 128 136 138 142 147 137 123 118 80 66 15 38 34 30 22 15 5 356 351 342 332 303 303 301 295 300 320 333 338 340 339 341 344 342 343 348 348 345 344 338 323 316 311 317 316 317 317 315 316 316 312 314 316 316 313 311 308 307 307 303 298 299 306
146 149 150 149 147 145 141 146 150 150 155 150 146 145 142 148 141 154 146 142 139 132 140 157 154 151 139 133 138 138 92 74 347 333 0 15 5 358 358 351 346 341 327 282 288 294 315 326 335 339 342 341 343 340 334 342 352 350 347 346 342 325 327 324 321 316 317 317 315 312 309 311 308 306 306 304 303 305 306 304 301 300 299 310 317
151 151 151 153 156 154 147 147 150 154 154 158 156 157 155 158 152 154 154 145 146 142 149 153 156 144 132 136 144 131 96 79 337 289 272 274 339 347 348 340 333 328 325 318 316 322 329 339 340 342 343 342 343 332 345 349 349 349 348 345 334 333 328 325 317 320 318 317 315 311 309 309 310 304 302 305 309 311 310 311 314 315 324 330 328
149 153 158 158 157 160 156 154 153 154 157 152 152 158 162 157 154 149 154 147 143 142 145 147 143 145 148 151 138 134 93 241 237 260 254 216 247 262 301 292 321 328 335 309 322 352 344 342 342 348 347 351 352 351 351 345 345 344 347 345 334 326 323 315 321 320 321 314 311 309 311 309 303 308 319 319 316 313 311 314 314 321 331 332 327
160 164 163 162 165 167 164 159 156 157 164 163 158 160 170 166 160 159 165 163 156 172 158 161 170 169 161 144 126 138 210 240 243 229 250 214 238 244 232 259 270 12 316 311 30 0 331 329 337 333 330 337 331 330 347 355 346 341 341 337 331 320 313 318 322 307 296 299 301 302 300 305 316 318 315 316 314 314 318 317 325 329 333 330 330
161 162 164 164 169 169 162 163 163 159 157 162 163 165 170 172 170 154 70 308 205 165 166 166 169 162 154 155 152 160 174 198 244 218 216 252 239 215 265 294 36 10 329 0 32 349 341 350 358 358 355 347 343 346 345 352 360 348 332 328 330 330 334 338 331 328 323 318 316 316 315 317 316 316 316 317 321 320 323 329 332 332 330 334 331
159 170 171 172 168 164 163 163 163 161 161 161 149 111 63 86 80 147 149 151 129 124 136 152 160 147 145 162 156 152 172 190 211 178 218 213 298 3 11 17 19 13 6 24 44 38 2 15 356 353 347 350 346 348 349 348 343 344 344 338 332 330 335 331 323 324 325 323 320 325 325 319 314 320 323 322 315 324 332 335 331 338 336 339 334
170 172 176 184 179 170 164 165 169 168 167 154 136 139 132 126 124 132 141 134 132 133 125 128 140 147 145 160 197 169 179 178 163 182 176 157 42 33 48 50 31 26 23 55 17 39 29 9 349 348 344 341 342 342 342 342 342 336 334 333 327 332 331 329 329 327 327 326 328 324 321 319 320 322 322 324 324 327 328 331 335 339 340 337 336
177 183 182 180 175 179 177 174 170 165 158 156 162 156 149 138 126 133 154 162 158 146 138 142 149 153 152 143 130 88 161 161 172 163 151 109 69 57 70 60 51 44 32 73 63 20 43 11 336 331 332 344 337 336 341 339 333 328 325 330 332 335 334 332 331 329 327 329 328 326 322 322 320 323 323 324 329 326 329 334 340 339 338 337 338
183 182 183 180 181 179 178 177 176 172 149 162 174 167 161 159 149 150 159 166 157 150 149 151 151 151 155 156 155 159 158 160 160 153 137 119 89 75 89 78 71 52 52 40 94 21 346 314 311 323 338 337 332 334 331 324 320 318 320 323 323 324 324 319 322 321 326 327 326 322 321 324 325 325 324 322 326 328 332 336 338 337 336 337 338
190 184 184 183 180 184 186 183 178 175 163 172 173 175 180 172 163 154 150 153 149 146 157 157 157 157 158 154 154 155 157 159 154 149 144 123 102 101 110 73 70 57 80 92 351 256 276 303 329 325 322 321 318 322 321 317 315 311 311 311 304 307 312 315 322 324 327 329 329 325 324 323 325 324 322 323 326 329 333 337 339 342 342 343 339
186 189 188 189 196 194 189 185 185 172 171 184 183 182 178 173 161 169 172 170 168 166 164 161 165 165 158 158 159 156 153 159 155 153 139 125 115 113 90 56 40 350 350 281 234 249 281 293 291 300 305 306 311 314 313 310 310 315 314 312 308 310 316 321 323 324 328 329 327 329 329 329 324 324 323 324 331 336 338 339 338 341 338 337 345
190 189 188 191 197 197 194 193 185 183 183 188 186 177 166 162 169 180 177 168 160 153 150 161 162 175 167 167 166 153 155 161 159 152 140 124 124 133 95 123 159 259 256 280 261 278 263 254 263 282 288 293 300 307 305 309 310 313 309 310 314 317 320 321 325 328 330 326 324 326 328 325 324 319 317 319 329 331 335 337 336 334 339 339 348
192 195 193 196 193 191 191 187 190 186 184 176 171 172 166 165 156 159 168 171 167 161 155 148 137 156 158 207 174 154 159 156 152 147 134 124 113 104 133 163 178 218 256 259 266 260 268 278 279 288 290 296 299 299 304 306 307 306 309 308 306 313 316 319 324 326 326 327 325 327 326 322 323 320 322 326 329 331 334 337 338 339 344 354 357
197 196 197 187 184 185 184 187 185 169 179 179 178 169 171 166 167 171 173 176 172 162 159 169 175 175 172 185 156 145 154 149 135 104 97 100 101 106 155 184 187 188 233 253 252 249 265 282 282 278 285 290 295 302 305 305 308 308 307 307 310 309 318 319 320 320 322 324 327 328 327 322 320 320 323 328 329 329 334 342 345 346 350 3 12
209 202 192 186 189 188 186 180 177 180 183 177 179 176 178 170 168 174 181 177 173 172 169 169 177 180 182 165 155 162 143 153 162 181 174 180 170 168 172 178 188 218 240 239 251 251 253 269 278 279 278 286 294 297 299 300 305 307 306 308 312 316 319 321 322 325 328 328 326 325 322 316 315 316 319 326 328 333 335 341 347 355 357 356 358
195 203 196 187 185 189 182 186 181 182 186 178 184 180 171 180 185 184 179 175 180 178 173 173 183 186 179 164 165 156 168 185 178 179 175 182 181 192 183 188 203 216 232 253 249 244 244 258 261 270 279 285 292 297 296 297 301 302 305 308 316 319 320 318 319 324 326 323 320 319 319 316 314 316 318 333 331 337 336 339 340 350 353 350 338
200 189 190 197 189 182 185 186 193 194 188 188 186 180 190 185 183 177 174 180 175 175 182 185 184 180 175 178 179 181 176 181 177 175 179 175 186 195 206 201 200 222 246 250 258 260 255 257 265 268 274 276 281 287 292 292 295 300 304 308 312 315 316 316 318 320 319 319 317 317 315 318 317 317 324 331 335 333 326 331 334 345 348 347 341
192 194 193 194 185 190 193 201 201 192 190 187 189 188 185 180 176 171 178 184 184 181 175 149 161 184 188 185 191 195 184 188 170 175 178 180 191 206 205 206 210 210 223 235 244 256 265 265 262 262 266 275 280 284 286 284 288 296 301 305 307 311 313 318 319 319 317 317 316 317 319 318 318 318 320 326 328 322 324 334 337 343 355 358 351
199 202 201 191 194 198 200 201 186 186 193 194 196 188 184 175 180 179 181 185 182 178 176 176 176 177 188 191 198 200 162 187 179 187 183 195 200 209 208 212 214 219 219 229 235 235 250 262 267 258 256 259 261 265 271 280 288 291 295 297 301 301 307 313 318 318 320 319 319 317 317 317 318 314 316 324 325 316 317 330 340 355 359 7 0
202 203 199 202 204 204 202 195 197 199 199 194 183 183 186 185 185 184 184 184 183 185 182 181 173 168 167 192 200 198 183 192 196 197 194 199 206 214 218 216 221 227 236 234 239 231 236 253 264 269 261 260 260 260 260 264 272 278 284 290 291 297 303 310 315 321 322 320 318 318 319 314 312 313 316 322 323 322 319 328 336 339 352 355 5
201 201 202 203 202 203 205 206 204 197 190 181 182 189 190 189 189 191 187 183 182 183 183 174 173 172 177 182 192 194 199 198 201 197 205 204 211 220 218 221 220 228 231 236 234 231 236 243 258 268 280 274 263 264 265 268 266 272 274 280 281 287 292 299 307 313 315 314 315 314 314 312 308 312 317 318 320 312 313 310 314 334 338 344 16
206 207 208 206 205 207 206 204 199 195 197 198 195 182 186 183 193 190 189 188 187 185 179 170 163 176 177 173 177 188 199 197 202 203 205 213 212 223 218 219 223 225 226 226 231 225 234 234 245 257 268 276 281 275 271 270 273 274 279 276 277 276 279 281 293 308 312 312 311 312 309 308 306 307 311 314 306 297 289 302 320 330 319 317 338
208 213 212 213 211 211 205 199 194 201 201 202 199 198 196 197 193 190 191 190 186 184 172 169 166 175 163 169 176 184 190 191 189 202 208 212 215 217 217 220 226 232 233 232 231 229 235 241 246 247 258 268 275 277 278 278 278 280 282 286 285 284 281 277 290 301 303 305 303 304 304 304 304 308 311 313 306 296 293 301 293 296 305 322 329
211 214 218 216 214 213 210 200 206 205 206 205 203 199 199 196 193 193 188 185 184 185 171 172 172 168 161 169 167 182 190 192 196 199 202 210 214 214 212 220 228 231 227 231 234 231 235 239 244 247 255 267 273 278 278 283 282 282 283 286 288 287 289 294 297 292 293 296 297 298 302 303 302 304 307 308 306 299 291 274 282 287 261 221 204
211 213 216 214 216 215 211 209 209 207 210 206 202 204 201 200 202 195 187 187 188 182 147 171 168 167 173 170 167 183 192 195 180 201 210 217 213 214 212 219 227 231 227 236 232 231 237 242 244 249 252 262 264 269 275 278 279 282 283 283 287 290 293 298 296 286 302 304 299 301 298 293 296 300 303 302 300 298 284 271 235 239 242 232 189
216 217 220 221 222 223 217 214 215 214 212 209 207 205 201 197 195 185 182 177 177 180 183 187 185 179 165 163 178 187 181 186 188 207 212 216 216 214 215 224 229 235 234 238 240 237 239 237 242 248 257 260 264 264 265 268 272 277 282 282 286 287 290 294 295 293 306 307 308 306 299 295 294 294 295 298 300 297 283 259 242 218 212 208 201
219 221 225 225 227 225 219 218 218 215 210 209 208 203 197 186 172 156 150 178 190 181 179 181 176 170 190 189 197 186 189 172 190 206 207 215 215 214 219 223 232 236 240 237 242 243 243 245 249 252 257 262 264 264 265 265 271 272 278 282 284 287 291 293 296 303 308 317 321 315 310 308 307 306 304 304 303 302 286 273 242 229 215 205 194